Location: Albany
(35.0170°S, 117.8920°E)
Time: 17:15:17
(UTC+08:00)

Vanguard 1 Rocket - All Passes

Search period start: 24 January 2021 00:00
Search period end: 03 February 2021 00:00
Orbit: 655 x 4222 km, 34.3° (Epoch: 23 January)

Date Brightness Start Highest point End Pass type
(mag) Time Alt. Az. Time Alt. Az. Time Alt. Az.
24 Jan - 00:40:07 10° WNW 01:03:30 87° N 01:28:41 10° E visible
24 Jan - 03:11:30 10° W 03:38:09 81° NNW 03:57:56 10° ENE visible
24 Jan - 05:45:52 10° WSW 06:08:33 47° NW 06:22:41 10° NNE daylight
24 Jan - 08:30:59 10° WNW 08:33:36 10° WNW 08:36:01 10° NW daylight
24 Jan - 18:47:46 10° NE 18:51:43 11° ENE 18:56:12 10° ENE daylight
24 Jan - 21:02:22 10° NNW 21:17:00 47° NE 21:40:06 10° ESE visible
24 Jan - 23:27:18 10° WNW 23:47:41 81° NNE 00:14:12 10° E visible
25 Jan - 01:56:51 10° W 02:22:24 87° N 02:45:16 10° ENE visible
25 Jan - 04:29:38 10° WSW 04:55:14 63° NNW 05:12:14 10° NE visible
25 Jan - 07:06:55 10° W 07:22:26 24° NW 07:33:13 10° N daylight
25 Jan - 19:53:06 10° N 20:04:46 31° NE 20:22:50 10° ESE visible
25 Jan - 22:15:30 10° NW 22:32:46 70° NNE 22:58:55 10° ESE visible
26 Jan - 00:43:04 10° W 01:06:14 88° N 01:31:37 10° E visible
26 Jan - 03:14:17 10° WSW 03:40:39 76° NNW 04:00:44 10° ENE visible
26 Jan - 05:48:50 10° WSW 06:10:28 40° NW 06:24:44 10° NNE daylight
26 Jan - 18:46:09 10° NNE 18:53:30 16° ENE 19:03:13 10° E daylight
26 Jan - 21:04:42 10° NW 21:19:05 55° NE 21:42:53 10° ESE visible
26 Jan - 23:30:13 10° WNW 23:50:18 85° NNE 00:17:02 10° E visible
27 Jan - 01:59:45 10° W 02:25:04 84° NNW 02:48:10 10° ENE visible
27 Jan - 04:32:24 10° WSW 04:57:21 55° NW 05:14:39 10° NE visible
27 Jan - 07:11:26 10° W 07:24:10 18° WNW 07:33:49 10° NNW daylight
27 Jan - 19:54:57 10° NNW 20:06:40 38° NE 20:26:02 10° ESE visible
27 Jan - 22:18:17 10° WNW 22:35:13 76° NNE 23:01:38 10° E visible
28 Jan - 00:46:04 10° W 01:08:58 88° N 01:34:31 10° E visible
28 Jan - 03:17:05 10° WSW 03:43:01 69° NNW 04:03:22 10° NE visible
28 Jan - 05:52:04 10° WSW 06:12:15 33° NW 06:26:26 10° N daylight
28 Jan - 18:46:48 10° N 18:55:20 22° NE 19:07:52 10° E daylight
28 Jan - 21:07:14 10° NW 21:21:19 62° NNE 21:45:34 10° ESE visible
28 Jan - 23:33:13 10° W 23:53:02 87° N 00:19:52 10° E visible
29 Jan - 02:02:40 10° W 02:27:38 80° NNW 02:50:57 10° ENE visible
29 Jan - 04:35:16 10° WSW 04:59:20 48° NW 05:16:48 10° NNE visible
29 Jan - 07:17:43 10° W 07:25:52 13° WNW 07:32:47 10° NW daylight
29 Jan - 19:57:10 10° NNW 20:08:43 45° NE 20:28:57 10° ESE visible
29 Jan - 22:21:12 10° WNW 22:37:49 81° NNE 23:04:21 10° E visible
30 Jan - 00:49:05 10° W 01:11:41 86° N 01:37:23 10° ENE visible
30 Jan - 03:19:54 10° WSW 03:45:13 63° NNW 04:05:48 10° NE visible
30 Jan - 05:55:46 10° W 06:13:58 26° NW 06:27:37 10° N daylight
30 Jan - 18:48:17 10° N 18:57:15 28° NE 19:11:37 10° E daylight
30 Jan - 21:10:00 10° NW 21:23:45 69° NNE 21:48:13 10° ESE visible
30 Jan - 23:36:16 10° W 23:55:48 88° N 00:22:41 10° E visible
31 Jan - 02:05:34 10° WSW 02:30:06 75° NNW 02:53:35 10° ENE visible
31 Jan - 04:38:19 10° WSW 05:01:10 41° NW 05:18:39 10° NNE visible
31 Jan - 17:42:20 10° NE 17:46:35 13° ENE 17:51:49 10° E daylight
31 Jan - 19:59:38 10° NW 20:10:56 53° NE 20:31:43 10° ESE visible
31 Jan - 22:24:13 10° WNW 22:40:33 85° N 23:07:05 10° E visible
01 Feb - 00:52:05 10° W 01:14:21 83° NNW 01:40:08 10° ENE visible
01 Feb - 03:22:47 10° WSW 03:47:18 56° NW 04:08:00 10° NE visible
01 Feb - 06:00:15 10° W 06:15:39 21° NW 06:28:04 10° NNW daylight
01 Feb - 18:50:16 10° NNW 18:59:18 34° NE 19:14:52 10° ESE daylight
01 Feb - 21:12:54 10° WNW 21:26:21 76° NNE 21:50:51 10° E visible
01 Feb - 23:39:21 10° W 23:58:35 88° N 00:25:29 10° E visible
02 Feb - 02:08:28 10° WSW 02:32:26 69° NNW 02:56:02 10° NE visible
02 Feb - 04:41:40 10° W 05:02:56 34° NW 05:20:06 10° N visible
02 Feb - 17:42:34 10° NNE 17:48:34 18° NE 17:57:02 10° E daylight
02 Feb - 20:02:19 10° NW 20:13:20 61° NNE 20:34:23 10° ESE visible
02 Feb - 22:27:18 10° W 22:43:22 87° N 23:09:50 10° E visible
